FW8220 Weather Reports


Display with metric or nautical units.
time (UTC)temp
F
wind
direction
speed
MPH
gust
MPH
rain 1hr
in
rain 24hr
in
rain mn
in
humidity
%
barometer
mb
20220808142821 86 211 4.0 9.0 0.00 0.00 0.00 67 1014.0
20220808142322 85 170 4.0 9.0 0.00 0.00 0.00 68 1014.1
20220808141823 85 194 4.0 9.0 0.00 0.00 0.00 69 1014.2
20220808141327 85 199 4.0 10.0 0.00 0.00 0.00 69 1014.2
20220808140821 85 217 4.0 10.0 0.00 0.00 0.00 69 1014.2
20220808140322 84 214 4.0 10.0 0.00 0.00 0.00 70 1014.3
20220808135821 84 209 4.0 10.0 0.00 0.00 0.00 71 1014.3
20220808135321 84 218 4.0 10.0 0.00 0.00 0.00 70 1014.3
20220808134822 84 230 4.0 9.0 0.00 0.00 0.00 70 1014.4
20220808134322 84 199 4.0 9.0 0.00 0.00 0.00 72 1014.4
20220808133822 84 214 4.0 9.0 0.00 0.00 0.00 71 1014.5
20220808133322 84 210 4.0 9.0 0.00 0.00 0.00 71 1014.6
20220808132819 84 233 4.0 10.0 0.00 0.00 0.00 72 1014.6
20220808132321 84 189 4.0 10.0 0.00 0.00 0.00 72 1014.6
20220808131818 84 223 3.0 9.0 0.00 0.00 0.00 71 1014.6
20220808131320 83 224 3.0 8.0 0.00 0.00 0.00 72 1014.7
20220808130817 83 224 4.0 10.0 0.00 0.00 0.00 73 1014.7
20220808130320 83 221 4.0 10.0 0.00 0.00 0.00 73 1014.8
20220808125819 83 215 3.0 9.0 0.00 0.00 0.00 73 1014.9
20220808125321 83 234 3.0 7.0 0.00 0.00 0.00 74 1014.9
20220808124818 82 197 3.0 9.0 0.00 0.00 0.00 74 1015.0
20220808124322 81 212 3.0 9.0 0.00 0.00 0.00 76 1015.1
20220808123818 82 87 3.0 7.0 0.00 0.00 0.00 75 1015.1
20220808123318 81 207 4.0 6.0 0.00 0.00 0.00 76 1015.1
20220808122738 81 208 3.0 7.0 0.00 0.00 0.00 76 1015.2
20220808122239 81 156 3.0 7.0 0.00 0.00 0.00 77 1015.3
20220808121740 81 191 2.0 6.0 0.00 0.00 0.00 77 1015.3
20220808121239 81 188 2.0 6.0 0.00 0.00 0.00 77 1015.4
20220808120739 80 147 2.0 7.0 0.00 0.00 0.00 78 1015.4
20220808120238 80 239 3.0 7.0 0.00 0.00 0.00 78 1015.3
20220808115735 80 230 3.0 9.0 0.00 0.00 0.00 79 1015.4
20220808115235 80 219 3.0 9.0 0.00 0.00 0.00 79 1015.5
20220808114735 80 221 2.0 7.0 0.00 0.00 0.00 79 1015.4
20220808114234 80 235 2.0 8.0 0.00 0.00 0.00 80 1015.5
20220808113734 79 0 2.0 8.0 0.00 0.00 0.00 80 1015.5
20220808113234 79 215 3.0 9.0 0.00 0.00 0.00 80 1015.5
20220808112729 79 219 3.0 9.0 0.00 0.00 0.00 81 1015.4
20220808112229 78 217 2.0 7.0 0.00 0.00 0.00 82 1015.5
20220808111729 78 203 2.0 6.0 0.00 0.00 0.00 82 1015.4
20220808111229 78 231 3.0 7.0 0.00 0.00 0.00 83 1015.4
20220808110729 78 237 2.0 7.0 0.00 0.00 0.00 84 1015.5
20220808110229 77 239 2.0 5.0 0.00 0.00 0.00 84 1015.6
20220808105729 77 199 2.0 5.0 0.00 0.00 0.00 84 1015.6
20220808105229 77 221 2.0 5.0 0.00 0.00 0.00 84 1015.6
20220808104730 77 228 2.0 5.0 0.00 0.00 0.00 85 1015.6
20220808104229 77 238 2.0 5.0 0.00 0.00 0.00 85 1015.5
20220808103729 76 0 1.0 4.0 0.00 0.00 0.00 85 1015.6
20220808103229 76 45 2.0 5.0 0.00 0.00 0.00 85 1015.5
20220808102728 76 233 2.0 5.0 0.00 0.00 0.00 86 1015.5
20220808102229 76 170 2.0 4.0 0.00 0.00 0.00 86 1015.4
20220808101725 76 219 2.0 6.0 0.00 0.00 0.00 86 1015.4
20220808101225 76 43 3.0 6.0 0.00 0.00 0.00 86 1015.4
20220808100726 76 47 2.0 6.0 0.00 0.00 0.00 86 1015.3
20220808100224 76 45 2.0 6.0 0.00 0.00 0.00 86 1015.3
20220808095722 76 53 2.0 6.0 0.00 0.00 0.00 86 1015.3
20220808095224 76 57 2.0 6.0 0.00 0.00 0.00 85 1015.2
20220808094722 76 0 2.0 4.0 0.00 0.00 0.00 85 1015.3
20220808094222 76 44 2.0 4.0 0.00 0.00 0.00 85 1015.4
20220808093722 76 83 2.0 5.0 0.00 0.00 0.00 85 1015.4
20220808093223 76 214 2.0 6.0 0.00 0.00 0.00 85 1015.2
20220808092223 76 194 2.0 5.0 0.00 0.00 0.00 85 1015.2
20220808091723 76 219 2.0 5.0 0.00 0.00 0.00 85 1015.1
20220808091223 76 237 2.0 5.0 0.00 0.00 0.00 85 1015.1
20220808090723 76 208 2.0 4.0 0.00 0.00 0.00 85 1015.1
20220808090223 76 261 2.0 5.0 0.00 0.00 0.00 84 1015.2
20220808085719 76 77 2.0 5.0 0.00 0.00 0.00 84 1015.2
20220808085219 76 74 2.0 7.0 0.00 0.00 0.00 84 1015.2
20220808084718 77 206 2.0 7.0 0.00 0.00 0.00 83 1015.1
20220808084219 77 210 2.0 6.0 0.00 0.00 0.00 83 1015.1
20220808083719 77 42 2.0 6.0 0.00 0.00 0.00 82 1015.1
20220808083219 77 221 2.0 5.0 0.00 0.00 0.00 82 1015.1
20220808082718 77 200 2.0 7.0 0.00 0.00 0.00 82 1015.1
20220808082217 77 265 2.0 7.0 0.00 0.00 0.00 82 1015.0
20220808081718 77 44 2.0 5.0 0.00 0.00 0.00 82 1015.1
20220808081218 77 237 2.0 5.0 0.00 0.00 0.00 82 1015.1
20220808080718 77 243 2.0 5.0 0.00 0.00 0.00 82 1015.1
20220808080217 77 220 2.0 5.0 0.00 0.00 0.00 82 1015.2
20220808075717 77 224 2.0 7.0 0.00 0.00 0.00 82 1015.2
20220808075218 77 0 2.0 7.0 0.00 0.00 0.00 82 1015.2
20220808074718 77 204 1.0 4.0 0.00 0.00 0.00 82 1015.3
20220808074218 77 48 1.0 5.0 0.00 0.00 0.00 81 1015.3
20220808073718 77 216 1.0 5.0 0.00 0.00 0.00 81 1015.3
20220808073219 78 0 1.0 6.0 0.00 0.00 0.00 81 1015.3
20220808072717 78 236 1.0 6.0 0.00 0.00 0.00 81 1015.3
20220808072213 78 211 2.0 5.0 0.00 0.00 0.00 81 1015.4
20220808071714 78 0 1.0 5.0 0.00 0.00 0.00 80 1015.4
20220808071214 78 0 1.0 4.0 0.00 0.00 0.00 81 1015.5
20220808070712 78 209 2.0 9.0 0.00 0.00 0.00 80 1015.5
20220808070212 78 0 2.0 9.0 0.00 0.00 0.00 80 1015.4
20220808065707 78 245 3.0 6.0 0.00 0.00 0.00 80 1015.4
20220808065208 78 204 2.0 5.0 0.00 0.00 0.00 80 1015.4
20220808064708 78 233 2.0 5.0 0.00 0.00 0.00 80 1015.5
20220808064208 78 224 2.0 4.0 0.00 0.00 0.00 80 1015.5
20220808063708 78 0 2.0 4.0 0.00 0.00 0.00 80 1015.5
20220808063209 78 239 2.0 4.0 0.00 0.00 0.00 80 1015.5
20220808062708 78 213 2.0 6.0 0.00 0.00 0.00 80 1015.6
20220808062208 78 215 2.0 6.0 0.00 0.00 0.00 80 1015.6
20220808061708 78 226 2.0 6.0 0.00 0.00 0.00 80 1015.6
20220808061208 78 220 2.0 5.0 0.00 0.00 0.00 79 1015.6
20220808060708 78 181 2.0 8.0 0.00 0.00 0.00 79 1015.6
20220808055707 79 228 2.0 8.0 0.00 0.00 0.00 78 1015.7
20220808055206 79 240 2.0 5.0 0.00 0.00 0.00 78 1015.7
20220808054706 79 0 3.0 6.0 0.00 0.00 0.00 78 1015.8
20220808054207 79 235 3.0 6.0 0.00 0.00 0.00 78 1015.8
20220808053701 79 237 3.0 9.0 0.00 0.00 0.00 78 1015.9
20220808053201 79 209 3.0 9.0 0.00 0.00 0.00 78 1015.8
20220808052702 78 212 3.0 7.0 0.00 0.00 0.00 78 1016.0
20220808052202 78 233 3.0 7.0 0.00 0.00 0.00 78 1016.1
20220808051702 78 232 3.0 8.0 0.00 0.00 0.00 79 1016.1
20220808051202 78 233 3.0 8.0 0.00 0.00 0.00 79 1016.1
20220808050702 78 226 3.0 5.0 0.00 0.00 0.00 79 1016.0
20220808050202 78 250 3.0 6.0 0.00 0.00 0.00 79 1016.0
20220808045702 78 216 3.0 6.0 0.00 0.00 0.00 79 1016.0
20220808045202 78 230 3.0 8.0 0.00 0.00 0.00 79 1016.1
20220808044704 78 204 3.0 8.0 0.00 0.00 0.00 79 1016.1
20220808044202 78 192 3.0 7.0 0.00 0.00 0.00 79 1016.1
20220808043702 78 245 3.0 7.0 0.00 0.00 0.00 79 1016.1
20220808043158 78 228 3.0 6.0 0.00 0.00 0.00 79 1016.3
20220808042658 78 216 2.0 6.0 0.00 0.00 0.00 79 1016.4
20220808042156 78 234 2.0 7.0 0.00 0.00 0.00 80 1016.4
20220808041656 78 214 2.0 7.0 0.00 0.00 0.00 80 1016.4
20220808041152 78 243 2.0 7.0 0.00 0.00 0.00 80 1016.4
20220808040652 78 206 3.0 8.0 0.00 0.00 0.00 80 1016.3
20220808040155 78 171 3.0 8.0 0.00 0.00 0.00 80 1016.3
20220808035651 78 208 3.0 6.0 0.00 0.00 0.00 80 1016.3
20220808035151 78 236 3.0 6.0 0.00 0.00 0.00 80 1016.3
20220808034652 78 195 2.0 7.0 0.00 0.00 0.00 80 1016.4
20220808034152 78 225 3.0 7.0 0.00 0.00 0.00 80 1016.3
20220808033652 78 224 3.0 7.0 0.00 0.00 0.00 80 1016.3
20220808033152 78 222 4.0 8.0 0.00 0.00 0.00 79 1016.3
20220808032652 78 211 4.0 8.0 0.00 0.00 0.00 79 1016.2
20220808032153 78 241 3.0 9.0 0.00 0.00 0.00 80 1016.2
20220808031653 78 232 3.0 9.0 0.00 0.00 0.00 79 1016.2
20220808031152 78 237 3.0 8.0 0.00 0.00 0.00 79 1016.1
20220808030652 79 226 3.0 7.0 0.00 0.00 0.00 79 1016.2
20220808030153 79 235 3.0 6.0 0.00 0.00 0.00 79 1016.2
20220808025652 79 195 4.0 8.0 0.00 0.00 0.00 78 1016.2
20220808025150 79 244 4.0 8.0 0.00 0.00 0.00 78 1016.2
20220808024650 79 233 4.0 7.0 0.00 0.00 0.00 78 1016.2
20220808024150 79 232 4.0 7.0 0.00 0.00 0.00 77 1016.3
20220808023649 79 221 3.0 7.0 0.00 0.00 0.00 77 1016.3
20220808023150 79 179 3.0 7.0 0.00 0.00 0.00 77 1016.3
20220808022651 79 222 3.0 7.0 0.00 0.00 0.00 76 1016.3
20220808022150 79 213 3.0 7.0 0.00 0.00 0.00 76 1016.4
20220808021650 79 239 3.0 7.0 0.00 0.00 0.00 76 1016.4
20220808021150 80 164 3.0 7.0 0.00 0.00 0.00 76 1016.4
20220808020650 80 221 4.0 8.0 0.00 0.00 0.00 75 1016.5
20220808020150 80 214 4.0 9.0 0.00 0.00 0.00 75 1016.4
20220808015651 80 226 4.0 9.0 0.00 0.00 0.00 75 1016.4
20220808015151 80 190 4.0 10.0 0.00 0.00 0.00 75 1016.4
20220808014652 80 223 4.0 10.0 0.00 0.00 0.00 75 1016.5
20220808014151 80 219 4.0 9.0 0.00 0.00 0.00 75 1016.5
20220808013648 80 229 4.0 9.0 0.00 0.00 0.00 75 1016.6
20220808013146 80 227 4.0 9.0 0.00 0.00 0.00 75 1016.7
20220808012642 80 243 4.0 9.0 0.00 0.00 0.00 75 1016.7
20220808012143 80 194 4.0 9.0 0.00 0.00 0.00 75 1016.8
20220808011643 80 208 4.0 10.0 0.00 0.00 0.00 75 1016.8
20220808011144 81 232 3.0 10.0 0.00 0.00 0.00 74 1016.8
20220808010641 81 223 3.0 6.0 0.00 0.00 0.00 74 1016.8
20220808010144 81 216 2.0 6.0 0.00 0.00 0.00 73 1016.8
20220808005642 81 230 2.0 6.0 0.00 0.00 0.00 73 1016.9
20220808005142 81 244 2.0 6.0 0.00 0.00 0.00 73 1016.7
20220808004642 81 205 2.0 7.0 0.00 0.00 0.00 73 1016.6
20220808004142 82 212 2.0 7.0 0.00 0.00 0.00 73 1016.6
20220808003642 82 239 3.0 7.0 0.00 0.00 0.00 73 1016.4
20220808003143 82 242 3.0 7.0 0.00 0.00 0.00 73 1016.4
20220808002642 82 228 3.0 7.0 0.00 0.00 0.00 73 1016.3
20220808002142 82 153 3.0 8.0 0.00 0.00 0.00 73 1016.4
20220808001642 82 194 3.0 8.0 0.00 0.00 0.00 73 1016.3
20220808001143 82 222 2.0 6.0 0.00 0.00 0.00 74 1016.2
20220808000642 82 229 2.0 9.0 0.00 0.00 0.00 74 1016.2
20220808000142 82 214 3.0 9.0 0.00 0.00 0.00 74 1016.1
20220807235641 82 227 3.0 8.0 0.00 0.00 0.00 74 1016.0
20220807235141 82 215 3.0 9.0 0.00 0.00 0.00 74 1016.0
20220807234641 82 227 3.0 9.0 0.00 0.00 0.00 74 1016.1
20220807234141 82 226 3.0 7.0 0.00 0.00 0.00 73 1016.0
20220807233641 82 218 3.0 8.0 0.00 0.00 0.00 73 1015.9
20220807233141 83 208 4.0 9.0 0.00 0.00 0.00 73 1015.9
20220807232641 83 228 4.0 13.0 0.00 0.00 0.00 73 1015.9
20220807232146 83 215 4.0 13.0 0.00 0.00 0.00 73 1015.9
20220807231642 83 212 4.0 9.0 0.00 0.00 0.00 72 1015.7
20220807231142 83 183 4.0 11.0 0.00 0.00 0.00 72 1015.5
20220807230642 83 200 5.0 11.0 0.00 0.00 0.00 71 1015.5
20220807230142 84 195 4.0 11.0 0.00 0.00 0.00 71 1015.6
20220807225641 84 204 3.0 9.0 0.00 0.00 0.00 71 1015.5
20220807225141 84 172 4.0 11.0 0.00 0.00 0.00 70 1015.5
20220807224642 85 230 5.0 11.0 0.00 0.00 0.00 70 1015.4
20220807224142 85 213 5.0 10.0 0.00 0.00 0.00 70 1015.4
20220807223637 85 213 5.0 13.0 0.00 0.00 0.00 69 1015.3
20220807223138 85 184 5.0 13.0 0.00 0.00 0.00 69 1015.2
20220807222636 85 205 4.0 13.0 0.00 0.00 0.00 69 1015.1
20220807222136 86 214 4.0 13.0 0.00 0.00 0.00 68 1015.1
20220807221635 86 196 3.0 9.0 0.00 0.00 0.00 68 1015.1
20220807221137 86 197 4.0 13.0 0.00 0.00 0.00 67 1015.0
20220807220636 87 201 4.0 13.0 0.00 0.00 0.00 66 1015.1
20220807220136 86 0 4.0 9.0 0.00 0.00 0.00 67 1015.2
20220807215632 87 214 4.0 9.0 0.00 0.00 0.00 66 1015.3
20220807215132 87 154 4.0 11.0 0.00 0.00 0.00 66 1015.4
20220807214632 87 200 4.0 11.0 0.00 0.00 0.00 66 1015.4
20220807214132 87 170 5.0 13.0 0.00 0.00 0.00 66 1015.4
20220807213632 87 231 5.0 13.0 0.00 0.00 0.00 66 1015.4
20220807213133 87 200 6.0 15.0 0.00 0.00 0.00 65 1015.3
20220807212634 87 201 6.0 15.0 0.00 0.00 0.00 65 1015.2
20220807212133 87 216 5.0 15.0 0.00 0.00 0.00 65 1015.3
20220807211633 87 189 5.0 17.0 0.00 0.00 0.00 63 1015.2
20220807211134 87 219 6.0 17.0 0.00 0.00 0.00 64 1015.2
20220807210634 87 191 7.0 13.0 0.00 0.00 0.00 64 1015.1
20220807210133 88 199 6.0 13.0 0.00 0.00 0.00 63 1015.1
20220807205632 88 226 6.0 12.0 0.00 0.00 0.00 63 1015.2
20220807205131 88 217 5.0 12.0 0.00 0.00 0.00 64 1015.3
20220807204631 88 220 5.0 12.0 0.00 0.00 0.00 63 1015.3
20220807204131 88 216 5.0 11.0 0.00 0.00 0.00 63 1015.3
20220807203631 88 256 5.0 11.0 0.00 0.00 0.00 63 1015.4
20220807203131 88 201 5.0 11.0 0.00 0.00 0.00 63 1015.5
20220807202632 89 246 5.0 11.0 0.00 0.00 0.00 63 1015.5
20220807202131 88 215 5.0 11.0 0.00 0.00 0.00 63 1015.5
20220807201632 89 213 5.0 11.0 0.00 0.00 0.00 63 1015.6
20220807201131 89 200 5.0 11.0 0.00 0.00 0.00 62 1015.6
20220807200632 89 194 5.0 12.0 0.00 0.00 0.00 62 1015.6
20220807200132 89 146 5.0 12.0 0.00 0.00 0.00 62 1015.7
20220807195632 89 202 5.0 10.0 0.00 0.00 0.00 61 1015.7
20220807195132 89 187 6.0 11.0 0.00 0.00 0.00 62 1015.8
20220807194628 89 228 5.0 11.0 0.00 0.00 0.00 63 1015.8
20220807194128 89 206 5.0 13.0 0.00 0.00 0.00 62 1015.9
20220807193628 89 345 5.0 13.0 0.00 0.00 0.00 62 1015.9
20220807193128 90 222 6.0 15.0 0.00 0.00 0.00 61 1015.9
20220807192628 90 200 5.0 15.0 0.00 0.00 0.00 60 1015.9
20220807192127 91 162 6.0 16.0 0.00 0.00 0.00 58 1015.9
20220807191628 90 223 7.0 17.0 0.00 0.00 0.00 56 1015.9
20220807191127 90 216 7.0 17.0 0.00 0.00 0.00 57 1015.8
20220807190628 91 211 7.0 15.0 0.00 0.00 0.00 56 1015.8
20220807190128 91 225 6.0 15.0 0.00 0.00 0.00 56 1015.9
20220807185628 91 213 5.0 12.0 0.00 0.00 0.00 56 1015.9
20220807185128 91 211 5.0 13.0 0.00 0.00 0.00 58 1015.9
20220807184628 91 214 6.0 13.0 0.00 0.00 0.00 55 1016.0
20220807184129 91 229 6.0 13.0 0.00 0.00 0.00 54 1016.1
20220807183627 91 197 6.0 13.0 0.00 0.00 0.00 53 1016.1
20220807183126 91 250 6.0 15.0 0.00 0.00 0.00 54 1016.1
20220807182627 91 172 6.0 15.0 0.00 0.00 0.00 57 1016.1
20220807182129 91 184 6.0 13.0 0.00 0.00 0.00 58 1016.2
20220807181628 91 208 4.0 13.0 0.00 0.00 0.00 58 1016.2
20220807181127 91 229 4.0 11.0 0.00 0.00 0.00 58 1016.3
20220807180626 91 183 5.0 11.0 0.00 0.00 0.00 58 1016.4
20220807180127 91 188 5.0 11.0 0.00 0.00 0.00 58 1016.3
20220807175623 91 223 5.0 10.0 0.00 0.00 0.00 57 1016.4
20220807175123 90 125 5.0 12.0 0.00 0.00 0.00 58 1016.4
20220807174621 90 193 5.0 12.0 0.00 0.00 0.00 59 1016.6
20220807174121 90 172 5.0 16.0 0.00 0.00 0.00 60 1016.7
20220807173621 90 221 5.0 16.0 0.00 0.00 0.00 59 1016.8
20220807173122 91 188 5.0 13.0 0.00 0.00 0.00 58 1016.8
20220807172621 91 219 5.0 13.0 0.00 0.00 0.00 59 1016.7
20220807172122 92 214 4.0 12.0 0.00 0.00 0.00 57 1017.0
20220807171623 92 259 4.0 11.0 0.00 0.00 0.00 53 1017.0
20220807171123 91 184 4.0 11.0 0.00 0.00 0.00 54 1017.1
20220807170620 91 204 4.0 11.0 0.00 0.00 0.00 54 1017.1
20220807170121 90 199 5.0 11.0 0.00 0.00 0.00 55 1017.1
20220807165622 90 256 5.0 11.0 0.00 0.00 0.00 58 1017.2
20220807165122 90 193 4.0 10.0 0.00 0.00 0.00 56 1017.2
20220807164622 90 219 4.0 11.0 0.00 0.00 0.00 57 1017.4
20220807164121 89 155 4.0 11.0 0.00 0.00 0.00 58 1017.5
20220807163622 90 200 4.0 10.0 0.00 0.00 0.00 59 1017.6
20220807163122 90 190 4.0 10.0 0.00 0.00 0.00 59 1017.7
20220807162617 90 203 4.0 10.0 0.00 0.00 0.00 58 1017.7
20220807162117 90 210 4.0 10.0 0.00 0.00 0.00 58 1017.8
20220807161618 89 207 4.0 8.0 0.00 0.00 0.00 60 1018.0
20220807161118 88 219 4.0 8.0 0.00 0.00 0.00 61 1018.2
20220807160617 88 181 3.0 7.0 0.00 0.00 0.00 63 1018.3
20220807160116 88 225 3.0 8.0 0.00 0.00 0.00 63 1018.4
20220807155616 88 214 4.0 8.0 0.00 0.00 0.00 63 1018.5
20220807155116 89 227 4.0 10.0 0.00 0.00 0.00 62 1018.5
20220807154617 88 220 4.0 10.0 0.00 0.00 0.00 62 1018.6
20220807154118 88 191 4.0 9.0 0.00 0.00 0.00 63 1018.7
20220807153618 88 185 4.0 9.0 0.00 0.00 0.00 62 1018.8
20220807153118 88 234 4.0 9.0 0.00 0.00 0.00 63 1018.9
20220807152619 87 209 5.0 9.0 0.00 0.00 0.00 64 1019.0
20220807152116 87 148 4.0 9.0 0.00 0.00 0.00 64 1019.0
20220807151617 87 13 4.0 9.0 0.00 0.00 0.00 64 1019.2
20220807151116 87 215 4.0 9.0 0.00 0.00 0.00 64 1019.2
20220807150617 87 241 4.0 9.0 0.00 0.00 0.00 65 1019.3
20220807150117 87 203 5.0 9.0 0.00 0.00 0.00 66 1019.5
20220807145617 87 224 4.0 9.0 0.00 0.00 0.00 66 1019.5
20220807145113 87 239 4.0 9.0 0.00 0.00 0.00 64 1019.5
20220807144615 87 198 4.0 9.0 0.00 0.00 0.00 65 1019.6
20220807144111 86 296 4.0 9.0 0.00 0.00 0.00 67 1019.6
20220807143611 85 231 4.0 9.0 0.00 0.00 0.00 68 1019.7